Location: Laupheim
(48.2265°N, 9.8829°E)
Time: 22:37:10
(UTC+01:00)

ISS - Pass Details

Date: 17 November 2017
Orbit: 402 x 407 km, 51.6° (Epoch: 19 November)

Event Time Altitude Azimuth Distance (km) Brightness Sun altitude
Exits shadow 06:21:07 10° 238° (WSW) 1,478 -1.4 -11.5°
Maximum altitude 06:21:46 10° 227° (SW) 1,450 -1.3 -11.4°
Drops below altitude 10° 06:21:48 10° 226° (SW) 1,450 -1.3 -11.4°
Sets 06:25:59 0° 174° (S) 2,301 0.3 -10.8°
